Location: Ostrava
(49.8330°N, 18.2830°E)
Time: 05:47:59
(UTC+02:00)

Iridium 7 - Visible Passes

Search period start: 28 April 2015 00:00
Search period end: 08 May 2015 00:00
Orbit: 776 x 779 km, 86.4° (Epoch: 27 April)

Date Brightness Start Highest point End Pass type
(mag) Time Alt. Az. Time Alt. Az. Time Alt. Az.
28 Apr 7.7 04:36:28 10° SE 04:40:50 29° E 04:45:18 10° NNE visible
29 Apr 8.3 04:04:19 10° ESE 04:07:35 18° ENE 04:11:01 10° NE visible
30 Apr 8.9 03:34:12 10° ENE 03:34:26 10° ENE 03:34:58 10° ENE visible
01 May 7.1 04:36:03 10° SSE 04:40:50 39° E 04:45:41 10° NNE visible
02 May 7.9 04:03:30 10° SE 04:07:32 24° E 04:11:40 10° NNE visible
03 May 8.4 03:31:44 10° ESE 03:34:19 14° ENE 03:37:06 10° NE visible
04 May 6.4 04:35:50 10° SSE 04:40:52 54° E 04:45:58 10° NNE visible
05 May 7.4 04:02:58 10° SE 04:07:30 32° E 04:12:07 10° NNE visible
06 May 8.1 03:30:41 10° ESE 03:34:14 19° ENE 03:37:57 10° NNE visible
07 May 8.5 02:59:33 10° E 03:01:03 11° ENE 03:02:50 10° NE visible
07 May 5.8 04:35:46 10° S 04:40:57 74° E 04:46:11 10° N visible
